Погода в Ице

Погода в Ице : погода сейчас, прогноз погоды и архив. Всё, что Вы хотите узнать о погоде в Ице!

Хотите узнать прогноз погоды в Ице? Тогда Вам сюда: Погода в Ице

Поиск расширенной информации на нашем сайте:

Другие новости

Новости СМИ2

Главная страница сайта

Новости сайта

02.10.2013

Напоминаем, что на нашем новом сайте вы можете получить высокодетализированные прогнозы погоды по пунктам России, СНГ и мира (включающие важные для авиации метеовеличины, такие как направление и скорость ветра, видимость, явления погоды, количество и форма облачности, нижняя и верхняя граница облачности), а также ознакомиться с разнообразными материалами по авиационной метеорологии и подборкой полезных ссылок на эту тему.

Сайт Метеоцентр.Азия посвящён разработке технологий оптимизации авиаметеорологического обслуживания, включая проектирование и перспективное создание нескольких автоматизированных авиаметеорологических систем:
- система выпуска высокодетальных прогностических карт явлений погоды для нижнего воздушного пространства по России и ближнему зарубежью;
- система верификации прогнозов TAF (выпускаемых синоптиками официальных АМСГ РФ и ближнего зарубежья) и AUTOTAF (выпускаемых сайтом Метеоцентр.Азия) - выявление ошибок, онлайн-сопоставление с фактической погодой METAR, автоматическое внесение коррективов в прогнозы при резком отклонении фактической погоды от прогноза, подсчёт оправдываемости прогнозов по элементам и в целом;
- система обработки, анализа и отображения авиаметеорологической информации для применения провайдерами метеорологической информации.


Погода в Ице - сегодня

Время (UTC), дата Ветер
(°,м/с) 
Видим.   Явления Облачность Т
(°С)
Тd
(°С)
f(%) Тe
(°С)
Pmin
(гПа)
dP
(гПа)
Po
(мм)
O2
(г/м3)
Тmin Tmax R s Состояние
почвы
00 24.02.17 360 (С) 20000 м  {ливн. осадки}  8/8 300 м 
[St]
-12 -14.2 84 -15  999.6  -0.5  749  317  -14.2         
03 24.02.17 360 (С) 20000 м    8/4 300 м верхняя 
[St|Ci fib]
-7.1 -11.6 70 -7  998.8  -0.8  749  311           
06 24.02.17 010 (С) 20000 м    6/4 300 м верхняя 
[St|Ci fib]
-11.3 -13.9 81 -15  996.8  -2  747  315           
09 24.02.17 010 (С) 20000 м    6/0 верхняя 
[Ci fib]
-16.1 -17.3 90 -22  995.6  -1.2  746  321    -6.9  0.0     
12 24.02.17 010 (С) 20000 м    8/0 верхняя 
[Ci fib]
-16.2 -18.4 83 -22  994.9  -0.7  746  321           
15 24.02.17 010 (С) 10 км  позёмок  6/0 верхняя 
[Ci fib]
-15.6 -19.3 73 -22  994.1  -0.7  745  320           
18 24.02.17 010 (С) 7{10}  10 км  позёмок  6/0 верхняя 
[Ci fib]
-15.9 -19.4 74 -23  994.7  0.6  746  320           
21 24.02.17 010 (С) 4{10}  20000 м    8/0 верхняя 
[Ci fib]
-17.6 -19.9 82 -23  996.4  1.7  747  323  -17.9      87  неравномерный
сухой снег
100% 
00 25.02.17 360 (С) 20000 м    9/4 300 м верхняя 
[St|Ci fib]
-13.9 -17 77 -17  999.1  2.7  749  319  -17.9         
03 25.02.17 360 (С) 20000 м    8/4 300 м верхняя 
[St|Ci fib]
-10.5 -15.7 66 -10  1001.4  2.3  751  316           
06 25.02.17 360 (С) 20000 м    9/6 300 м верхняя 
[St|Ci fib]
-9.9 -14.8 67 -12  1003.9  2.5  752  316           
09 25.02.17 360 (С) 10 км  слаб. ливневой снег  10/10 300 м кучево-дожд. 
[Cb cap]
-11.4 -14.9 75 -16  1006.2  2.3  754  318    -9.7  0.0     
12 25.02.17 360 (С) 10 км  слаб. ливневой снег  10/10 300 м кучево-дожд. 
[Cb cap]
-12.6 -16.1 75 -17  1008.3  2.1  756  321           
15 25.02.17 360 (С) 5{12}  10 км  позёмок{ливн. осадки}  8/8 300 м 
[St]
-12.3 -16.4 71 -17  1009.2  0.9  756  321           
18 25.02.17 360 (С) 9-11{12}  10 км  позёмок  9/9 300 м 
[St]
-11 -12.1 92 -18  1010.1  1.2  757  319           
21 25.02.17 360 (С) 9-10{12}  10 км  позёмок  8/8 300 м 
[St]
-11.6 -12.9 90 -19  1011.9  1.5  758  320  -13.5    0.3  88  неравномерный
сухой снег
100% 
00 26.02.17 360 (С) 6{12}  10 км  слаб. ливневой снег  10/10 300 м кучево-дожд. 
[Cb cap]
-9.5 -10.8 90 -15  1014.6  2.7  760  319           
03 26.02.17 360 (С) 9-11{12}  10 км  позёмок{ливн. осадки}  9/9 300 м 
[St]
-6 -12.1 62 -12  1016.2  1.6  762  315           
06 26.02.17 360 (С) 5{11}  10 км  позёмок  8/8 300 м 
[St]
-6.3 -12.3 62 -10  1018.4  2.2  763  316           
09 26.02.17 360 (С) 10 км  слаб. ливневой снег  10/10 300 м кучево-дожд. 
[Cb cap]
-9.3 -10.6 90 -13  1020.6  2.2  765  320    -5.9  0.0     
12 26.02.17 360 (С) 20000 м  {ливн. осадки}  8/3 300 м верхняя 
[St|Ci fib]
-11 -11.8 94 -17  1020.5  0.1  765  322           
15 26.02.17 360 (С) 20000 м    8/0 верхняя 
[Ci fib]
-13.3 -15.6 83 -19  1018.7  -1.8  764  325           
18 26.02.17 140 (ЮВ) 97-10{10}  1100 м  позёмок{дождь}  5/4 300 м верхняя 
[St|Ci fib]
-10.3 -15.3 67 -28  1016.3  -2.4  762  320           
21 26.02.17 360 (С) 6{10}  10 км  позёмок  10/10 300 м 
[St]
-5.2 -10.9 64 -10  1014.7  -1.6  761  313  -13.5    0.0     
00 27.02.17 070 (В) 10 км  позёмок  10/10 300 м 
[St]
-2.6 -10.4 55 -6  1014.3  -0.4  760  310           
Время (UTC), дата Ветер
(°,м/с) 
Видим.   Явления Облачность Т
(°С)
Тd
(°С)
f(%) Тe
(°С)
Pmin
(гПа)
dP
(гПа)
Po
(мм)
O2
(г/м3)
Тmin Tmax R s Состояние
почвы

Для получения пояснительной информации подведите курсор к названию столбца.

ПОГОДА в Ице - архив

Всё, что Вы хотите узнать о погоде в Ице - удобно и подробно!

Выберите нужную дату (начиная с 1 января 2015* года) и нажмите кнопку "Найти".
Будут отображены архивные сводки погоды по пункту Ица, начиная с указанной даты.


Отображать данные в формате CSV (для использования в таблицах Excel)


Внимание! Наш архив погоды предназначен исключительно для личного некоммерческого использования в познавательных целях. Если Вам необходимы официальные справки о состоянии погоды (для производственных, юридических, коммерческих и т.п. целей), обращайтесь в органы Росгидромета.

*Примечание: данная дата относится к архиву по метеостанциям СССР (Россия, СНГ, Балтия).
Архив по метеостанциям Зарубежной Европы и Азии (кроме Китая) хранится 10 дней, по другим регионам земного шара (Китай, Африка, Америка, Австралия, Океания) - 1 день.

Ица - район местоположения метеостанции


Название, широта, долгота, высота метеостанции:
Ица 55.6°ш. 155.6°д. 6 м над ур. моря [Российская Федерация]

Дополнительная информация

В oтличие oт бoльшинства пoгoдных сайтoв мы публикуем пoдрoбную метеoинфoрмацию в детальнoм прoфессиoнальнoм фoрмате.

Характеристики температуры и влажнoсти вoздуха измеряются на высoте 2 м в тени вдали oт зданий и деревьев.
Скoрoсть ветра измеряется на высoте 10 м (на урoвне рoста челoвека скoрoсть ветра ниже в 1.5-2 раза). Если метеoстанция нахoдится в гoрoде или в лесу, тo скoрoсть ветра занижена на 2-4 м/с пo сравнению с oткрытым местoм. Скoрoсть ветра над акватoриями крупных рек и oзёр, а также на вершинах хoлмoв на 2-5 м/с выше, чем в oбычных услoвиях.
Атмoсфернoе давление в разных тoчках местнoсти мoжет значительнo oтличаться oт давления на метеoстанции, в зависимoсти oт услoвий рельефа (при пoдъёме на 10 м давление пoнижается примернo на 1 мм рт.ст.).